TimePDT,TemperatureF,Dew PointF,Humidity,Sea Level PressureIn,VisibilityMPH,Wind Direction,Wind SpeedMPH,Gust SpeedMPH,PrecipitationIn,Events,Conditions,WindDirDegrees,DateUTC
12:54 AM,50.0,45.0,83,30.14,10.0,SE,4.6,-,N/A,,Clear,140,2013-07-13 07:54:00
1:54 AM,48.0,45.0,89,30.14,10.0,South,3.5,-,N/A,,Clear,170,2013-07-13 08:54:00
2:54 AM,45.0,44.1,97,30.16,10.0,Calm,Calm,-,N/A,,Clear,0,2013-07-13 09:54:00
3:54 AM,43.0,42.1,97,30.17,8.0,Calm,Calm,-,N/A,,Clear,0,2013-07-13 10:54:00
4:54 AM,43.0,42.1,97,30.17,5.0,Calm,Calm,-,N/A,,Clear,0,2013-07-13 11:54:00
5:54 AM,43.0,41.0,93,30.18,10.0,Calm,Calm,-,N/A,,Clear,0,2013-07-13 12:54:00
6:11 AM,43.0,42.1,97,30.18,3.0,Calm,Calm,-,N/A,,Partly Cloudy,0,2013-07-13 13:11:00
6:54 AM,46.9,45.0,93,30.20,10.0,Calm,Calm,-,N/A,,Clear,0,2013-07-13 13:54:00
7:54 AM,52.0,48.0,86,30.21,10.0,SSW,3.5,-,N/A,,Partly Cloudy,210,2013-07-13 14:54:00
8:54 AM,55.0,48.0,77,30.21,10.0,Calm,Calm,-,N/A,,Partly Cloudy,0,2013-07-13 15:54:00
9:54 AM,59.0,48.0,67,30.21,10.0,Calm,Calm,-,N/A,,Clear,0,2013-07-13 16:54:00
10:54 AM,64.0,48.0,56,30.20,10.0,NE,5.8,-,N/A,,Clear,50,2013-07-13 17:54:00
11:54 AM,66.0,48.9,54,30.20,10.0,North,6.9,-,N/A,,Partly Cloudy,360,2013-07-13 18:54:00
12:54 PM,68.0,50.0,52,30.19,10.0,NNW,8.1,-,N/A,,Clear,330,2013-07-13 19:54:00
1:54 PM,72.0,50.0,46,30.17,10.0,NNE,6.9,-,N/A,,Clear,30,2013-07-13 20:54:00
2:54 PM,75.0,44.1,33,30.16,10.0,NNE,10.4,-,N/A,,Clear,30,2013-07-13 21:54:00
3:54 PM,75.9,46.0,35,30.14,10.0,NNE,10.4,-,N/A,,Clear,30,2013-07-13 22:54:00
4:54 PM,75.0,46.0,36,30.13,10.0,Variable,6.9,-,N/A,,Clear,0,2013-07-13 23:54:00
5:54 PM,77.0,45.0,32,30.12,10.0,NNE,6.9,-,N/A,,Clear,20,2013-07-14 00:54:00
6:54 PM,75.9,45.0,33,30.12,10.0,North,8.1,-,N/A,,Clear,360,2013-07-14 01:54:00
7:54 PM,73.9,43.0,33,30.11,10.0,NE,8.1,-,N/A,,Clear,50,2013-07-14 02:54:00
8:54 PM,68.0,43.0,40,30.12,10.0,North,5.8,-,N/A,,Clear,10,2013-07-14 03:54:00
9:54 PM,63.0,44.1,50,30.13,10.0,NNE,6.9,-,N/A,,Clear,20,2013-07-14 04:54:00
10:54 PM,64.0,44.1,48,30.13,10.0,North,4.6,-,N/A,,Clear,360,2013-07-14 05:54:00
11:54 PM,63.0,44.1,50,30.13,10.0,Calm,Calm,-,N/A,,Clear,0,2013-07-14 06:54:00